Hourly Data Report for October 22, 2017

All times are specified in Local Standard Time (LST). Add 1 hour to adjust for Daylight Saving Time where and when it is observed.

ST. PETERS
PRINCE EDWARD ISLAND

46°27'01.000" N
62°34'33.000" W
29.70 m
8300562
71310
ZSP

Download Data

Hourly Data (October 2017)
Hourly Data Report for October 22, 2017
Temp Definition
°C
Dew Point Temp Definition
°C
Rel Hum Definition
%
Wind Dir Definition
10's deg

Wind Spd Definition
km/h
Visibility Definition
km
Stn Press Definition
kPa
Hmdx Definition


Wind Chill Definition


Weather Definition


TIME
00:00 6.0 0.3 67 33 13   102.40     LegendNANA
01:00 6.1 -0.2 64 33 16   102.46     LegendNANA
02:00 6.0 -0.2 64 32 16   102.48     LegendNANA
03:00 6.1 -0.1 64 33 17   102.53     LegendNANA
04:00 5.8 -1.1 61 33 17   102.58     LegendNANA
05:00 5.8 -1.1 61 33 19   102.63     LegendNANA
06:00 5.3 -1.5 61 33 18   102.67     LegendNANA
07:00 5.6 -1.0 63 34 17   102.75     LegendNANA
08:00 5.9 -1.2 60 34 19   102.83     LegendNANA
09:00 5.8 -1.5 59 34 18   102.90     LegendNANA
10:00 6.4 -1.0 59 33 15   102.96     LegendNANA
11:00 6.6 -1.3 57 34 15   103.01     LegendNANA
12:00 6.3 -1.8 56 33 15   102.97     LegendNANA
13:00 7.1 -1.0 56 35 15   102.95     LegendNANA
14:00 6.2 -1.5 57 35 14   102.97     LegendNANA
15:00 5.9 -1.3 60 33 13   102.99     LegendNANA
16:00 5.0 -1.4 63 33 10   103.03     LegendNANA
17:00 3.5 -1.9 67 33 6   103.02     LegendNANA
18:00 2.3 -2.0 73 34 4   103.06     LegendNANA
19:00 0.8 -2.1 81 30 3   103.08     LegendNANA
20:00 -1.5 -3.9 84 1 2   103.07   -2 LegendNANA
21:00 -2.2 -4.0 88 16 5   103.09   -4 LegendNANA
22:00 -1.1 -2.7 89 19 6   103.07   -3 LegendNANA
23:00 -2.2 -3.6 90 18 7   103.03   -5 LegendNANA

Notes on Data Quality.

Legend

  • E = Estimated
  • M = Missing
  • NA = Not Available
Date modified: